TimeCST,TemperatureF,Dew PointF,Humidity,Sea Level PressureIn,VisibilityMPH,Wind Direction,Wind SpeedMPH,Gust SpeedMPH,PrecipitationIn,Events,Conditions,WindDirDegrees,DateUTC
12:55 AM,25.0,15.1,66,30.30,10.0,West,9.2,-,N/A,,Clear,280,2012-11-12 06:55:00
1:55 AM,24.1,14.0,65,30.30,10.0,West,8.1,-,N/A,,Clear,280,2012-11-12 07:55:00
2:55 AM,23.0,14.0,68,30.31,10.0,West,8.1,-,N/A,,Clear,260,2012-11-12 08:55:00
3:55 AM,23.0,14.0,68,30.31,10.0,West,9.2,-,N/A,,Partly Cloudy,260,2012-11-12 09:55:00
4:55 AM,23.0,14.0,68,30.32,10.0,West,8.1,-,N/A,,Clear,270,2012-11-12 10:55:00
5:55 AM,23.0,15.1,72,30.34,10.0,West,6.9,-,N/A,,Clear,270,2012-11-12 11:55:00
6:55 AM,23.0,14.0,68,30.36,10.0,West,9.2,-,N/A,,Clear,260,2012-11-12 12:55:00
7:55 AM,24.1,15.1,69,30.39,10.0,West,11.5,-,N/A,,Clear,260,2012-11-12 13:55:00
8:55 AM,30.0,17.1,59,30.40,10.0,WSW,9.2,-,N/A,,Clear,250,2012-11-12 14:55:00
9:55 AM,34.0,18.0,52,30.41,10.0,West,13.8,-,N/A,,Clear,270,2012-11-12 15:55:00
10:55 AM,39.0,17.1,41,30.41,10.0,West,15.0,-,N/A,,Clear,270,2012-11-12 16:55:00
11:55 AM,43.0,16.0,34,30.40,10.0,West,13.8,-,N/A,,Clear,280,2012-11-12 17:55:00
12:55 PM,45.0,14.0,29,30.37,10.0,WNW,18.4,29.9,N/A,,Clear,290,2012-11-12 18:55:00
1:55 PM,46.9,15.1,28,30.35,10.0,West,13.8,-,N/A,,Clear,280,2012-11-12 19:55:00
2:55 PM,48.0,10.9,22,30.35,10.0,West,17.3,23.0,N/A,,Clear,280,2012-11-12 20:55:00
3:55 PM,46.9,10.0,22,30.37,10.0,WNW,12.7,23.0,N/A,,Clear,300,2012-11-12 21:55:00
4:55 PM,43.0,12.9,30,30.37,10.0,WNW,4.6,-,N/A,,Clear,300,2012-11-12 22:55:00
5:55 PM,39.2,14.0,36,30.33,10.0,SW,4.6,-,N/A,,Clear,230,2012-11-12 23:55:00
6:55 PM,36.0,15.1,43,30.39,10.0,SW,6.9,-,N/A,,Clear,220,2012-11-13 00:55:00
7:55 PM,32.0,18.0,56,30.41,10.0,Calm,Calm,-,N/A,,Clear,0,2012-11-13 01:55:00
8:55 PM,33.1,16.0,50,30.41,10.0,Calm,Calm,-,N/A,,Clear,0,2012-11-13 02:55:00
9:55 PM,30.9,14.0,50,30.41,10.0,SSE,4.6,-,N/A,,Clear,160,2012-11-13 03:55:00
10:55 PM,32.0,15.1,50,30.40,10.0,South,8.1,-,N/A,,Clear,180,2012-11-13 04:55:00
11:55 PM,36.0,14.0,41,30.40,10.0,South,10.4,-,N/A,,Clear,180,2012-11-13 05:55:00